This demonstration page uses our WeatherBlox Daily Observations layout. Learn more.

Left ArrowRight Arrow

Hourly Observations for September 6, 2021

Temp ( °F °C ) Dew Point ( °F °C ) Humidity (%) Winds ( mph kmh ) Pressure ( in mb ) Visibility ( mi km ) Precip ( " mm )
12:52 am 00:52 Mostly Clear 69 20.6 64 17.8 84 84 SE 8 13 29.93 1014 10 16 0.00 0.00
1:52 am 01:52 Mostly Clear 70 21.1 63 17.2 79 79 SE 7 11 29.93 1014 10 16 0.00 0.00
2:52 am 02:52 Clear 69 20.6 63 17.2 81 81 SE 7 11 29.93 1014 10 16 0.00 0.00
3:52 am 03:52 Clear 67 19.4 62 16.7 84 84 SSE 6 9 29.93 1014 10 16 0.00 0.00
4:52 am 04:52 Clear 66 18.9 62 16.7 87 87 Calm 29.94 1014 10 16 0.00 0.00
5:52 am 05:52 Clear 66 18.9 62 16.7 87 87 SSE 6 9 29.93 1014 10 16 0.00 0.00
6:52 am 06:52 Clear 65 18.3 62 16.7 90 90 SSE 6 9 29.94 1014 10 16 0.00 0.00
7:52 am 07:52 Sunny 66 18.9 63 17.2 90 90 SSE 7 11 29.95 1014 10 16 0.00 0.00
8:52 am 08:52 Sunny 70 21.1 63 17.2 79 79 SSE 8 13 29.96 1015 10 16 0.00 0.00
9:52 am 09:52 Sunny 74 23.3 63 17.2 69 69 S 9 15 29.95 1014 10 16 0.00 0.00
10:52 am 10:52 Sunny 77 25 65 18.3 66 66 SSE 7 11 29.94 1014 10 16 0.00 0.00
11:52 am 11:52 Sunny 81 27.2 65 18.3 58 58 S 9 15 29.92 1013 10 16 0.00 0.00
12:52 pm 12:52 Sunny 83 28.3 66 18.9 57 57 S 9 15 29.89 1012 10 16 0.00 0.00
1:52 pm 13:52 Sunny 86 30 67 19.4 53 53 S 13 20 29.87 1012 10 16 0.00 0.00
2:52 pm 14:52 Sunny 87 30.6 68 20 53 53 S 12 19 29.84 1011 10 16 0.00 0.00
3:52 pm 15:52 Sunny 90 32.2 68 20 48 48 S 12 19 29.81 1010 10 16 0.00 0.00
4:52 pm 16:52 Sunny 91 32.8 67 19.4 45 45 S 16 26 29.79 1009 10 16 0.00 0.00
5:52 pm 17:52 Sunny 90 32.2 66 18.9 45 45 S 15 24 29.78 1009 10 16 0.00 0.00
6:52 pm 18:52 Sunny 88 31.1 65 18.3 46 46 S 10 17 29.77 1008 10 16 0.00 0.00
7:52 pm 19:52 Clear 84 28.9 66 18.9 55 55 S 10 17 29.76 1008 10 16 0.00 0.00
8:52 pm 20:52 Clear 80 26.7 67 19.4 64 64 SSE 9 15 29.78 1008 10 16 0.00 0.00
9:52 pm 21:52 Clear 78 25.6 67 19.4 69 69 S 7 11 29.78 1009 10 16 0.00 0.00
10:52 pm 22:52 Clear 75 23.9 67 19.4 76 76 SSE 8 13 29.78 1009 10 16 0.00 0.00
11:52 pm 23:52 Clear 75 23.9 66 18.9 74 74 SSE 9 15 29.78 1008 10 16 0.00 0.00

Powered by AerisWeather